GFSCGP_250_spd_057.txt.gz
Wind_Speed
59 56 54 58 53 50 49 49 49 50 42 35 31 33 33 30 35 37 37 38 35 32 30 27 25 26 27 28 28 29 30 30 31 30 32 32 32 33 34 35 37 39 40 43
62 58 63 58 55 54 54 53 55 54 46 38 36 32 36 34 34 38 39 42 40 36 33 29 26 27 27 27 27 28 31 31 31 32 34 34 33 35 37 38 39 41 43 45
66 64 64 62 60 60 61 60 62 57 52 43 41 29 34 40 36 38 43 44 44 41 39 35 30 32 33 31 29 29 31 33 33 34 34 35 35 37 38 39 41 43 45 48
71 68 70 69 66 67 65 67 64 60 56 50 44 25 35 43 37 41 48 47 49 45 40 36 36 35 34 36 33 31 32 34 36 36 36 37 38 39 40 41 43 44 46 47
74 75 74 73 71 74 67 69 69 66 62 56 43 38 30 45 42 48 52 54 54 49 44 37 40 37 36 36 35 34 35 38 40 39 38 38 40 41 43 44 46 48 50 51
79 78 79 77 77 80 75 74 74 73 70 61 49 51 26 42 47 52 58 63 59 52 48 40 42 40 42 42 40 38 39 40 41 40 39 40 42 44 45 46 47 49 51 53
84 81 81 82 82 82 82 81 82 81 76 64 59 56 30 43 49 55 60 67 66 63 56 48 47 47 46 45 46 43 43 43 43 42 43 45 45 46 48 48 48 48 49 51
89 85 84 83 84 86 87 86 85 83 82 77 71 50 40 47 50 57 64 65 65 67 61 54 52 51 50 48 48 47 46 44 45 45 46 45 47 47 48 48 49 51 53 55
92 89 88 88 89 91 87 86 84 89 83 80 69 58 51 51 56 61 68 68 60 58 65 58 56 54 53 51 51 49 48 49 49 49 47 47 45 47 49 51 53 55 57 58
100 98 94 92 91 90 89 88 90 91 89 87 74 68 59 60 63 64 70 71 67 61 61 57 56 57 57 55 53 51 51 52 51 50 49 49 49 51 53 53 55 57 59 60
105 104 98 99 94 94 97 93 93 94 94 92 87 75 66 65 60 66 67 70 70 70 62 64 64 63 61 58 58 57 55 54 53 53 53 52 53 53 54 54 55 57 59 61
111 111 104 101 102 102 101 97 99 100 98 101 98 75 67 67 69 69 71 72 72 69 73 70 68 66 64 60 61 62 62 60 58 57 58 58 58 57 57 58 60 62 62 65
114 118 115 110 105 103 101 101 102 102 103 101 97 77 67 73 75 75 77 79 75 71 73 75 74 71 66 63 65 67 67 65 64 63 63 64 65 64 63 65 66 66 67 71
121 123 118 114 112 112 111 107 106 108 109 93 101 79 71 71 73 75 78 80 78 76 75 75 79 76 72 69 67 70 68 69 70 69 68 69 70 70 70 70 71 72 74 73
121 123 124 119 116 114 113 111 112 112 105 108 91 96 70 77 76 80 82 83 87 86 83 81 79 78 74 71 68 70 72 73 72 73 74 74 74 74 73 73 74 74 76 76
119 118 118 115 115 121 122 118 113 112 107 109 99 102 80 85 88 88 90 90 87 85 86 85 83 81 80 77 74 74 76 76 75 76 77 78 78 77 75 76 77 79 77 77
122 126 116 116 108 119 127 116 112 117 114 109 108 96 94 92 91 93 95 94 93 93 93 90 87 84 82 80 78 75 76 76 76 78 81 83 84 81 79 81 81 80 82 84
125 124 129 124 115 117 105 106 107 108 105 109 110 106 103 99 95 97 95 96 96 95 93 89 87 84 83 79 78 79 80 81 84 85 86 87 89 87 87 86 84 85 89 91
128 129 134 131 129 130 118 98 103 107 105 108 111 105 102 107 108 101 102 104 100 98 96 94 90 87 87 87 86 85 86 88 89 89 90 92 93 94 90 89 90 90 92 92
140 141 144 139 140 140 123 112 114 119 117 106 105 98 96 107 106 100 103 103 102 100 98 96 94 91 88 87 88 89 90 92 93 94 95 94 93 89 89 91 93 93 95 96
125 132 140 139 143 140 128 125 128 130 121 115 118 114 107 102 102 98 98 100 105 105 105 103 102 99 98 98 98 98 99 98 100 100 98 95 93 93 94 95 96 99 99 101
115 124 127 131 136 139 131 137 135 134 131 127 124 123 117 109 100 97 95 94 96 98 100 101 102 103 104 104 104 104 105 104 102 104 100 97 94 93 93 93 94 95 97 101
112 114 117 122 122 125 127 128 131 135 132 131 133 128 124 117 110 107 103 99 95 94 93 91 92 95 96 98 100 101 99 98 99 98 95 94 97 97 99 98 100 100 102 105
108 108 113 114 111 114 116 117 116 124 132 129 129 129 123 121 117 113 111 108 105 101 99 95 93 92 92 94 95 95 96 98 96 97 100 99 100 100 98 100 103 100 103 108
107 108 107 106 103 107 108 113 114 115 120 121 124 127 121 120 118 117 115 114 113 112 109 106 106 105 105 104 102 103 103 104 107 107 109 107 109 107 107 111 112 116 118 118
101 101 104 101 104 103 105 111 110 111 119 115 118 121 120 121 122 121 118 118 115 120 119 117 116 116 114 113 112 112 113 113 115 116 117 119 121 122 120 121 124 124 127 126

GFSCGP_250_spd_060.txt.gz
Wind_Speed
59 55 53 59 54 51 51 52 55 55 47 41 40 40 36 31 35 34 32 32 32 33 26 26 23 22 23 25 27 25 27 29 30 31 32 33 35 36 36 35 36 36 37 38
60 57 63 60 56 55 56 57 57 57 51 43 42 40 37 34 36 35 36 37 35 36 34 32 26 25 26 26 25 25 27 28 30 31 31 32 32 35 36 38 38 38 40 42
66 65 66 64 61 59 62 61 62 58 53 47 46 39 39 41 36 35 40 39 39 40 40 37 32 26 30 32 32 30 28 30 31 32 33 32 31 32 35 36 36 37 39 41
70 68 69 68 66 66 66 69 65 63 59 51 49 35 42 47 38 39 44 42 43 43 43 43 36 27 31 36 36 36 34 34 36 36 35 35 36 37 38 37 38 40 41 42
74 74 72 70 70 72 67 70 69 68 66 58 50 38 39 48 41 47 48 47 48 46 46 46 41 32 33 36 36 38 38 37 36 38 40 39 39 40 40 39 40 43 45 47
80 78 77 74 75 77 74 74 75 73 71 64 57 50 30 42 47 51 52 53 55 53 52 50 45 38 36 39 41 41 41 40 39 40 41 42 42 42 41 42 44 45 47 49
85 82 82 81 80 80 78 79 81 81 76 65 63 58 29 42 51 52 55 60 61 61 61 58 48 40 40 40 43 44 43 43 43 44 44 44 42 42 44 46 46 46 47 49
89 86 85 82 84 86 87 85 83 80 81 76 72 58 40 51 51 59 62 67 66 67 70 68 57 47 42 44 46 47 47 48 49 48 47 46 46 47 49 48 47 47 48 49
89 83 88 88 90 93 89 87 84 90 87 84 74 59 53 55 59 64 64 65 67 74 75 75 70 57 52 44 46 46 46 49 52 53 53 51 50 49 50 50 50 52 52 53
97 96 93 88 90 92 92 89 92 93 91 91 79 74 61 58 64 64 63 66 72 76 78 79 76 72 67 54 47 48 49 52 54 55 56 56 56 54 55 55 56 56 57 56
105 105 100 100 98 96 99 98 97 97 98 95 91 83 67 66 67 68 71 72 75 77 82 84 80 69 70 64 57 54 54 56 57 58 60 60 62 62 61 61 62 63 64 63
110 112 108 104 105 105 107 102 102 104 98 102 101 90 72 75 74 76 76 75 76 81 83 82 81 76 73 71 64 61 63 62 60 60 62 63 65 67 67 67 67 68 69 69
117 118 112 112 110 106 102 101 102 104 108 108 107 95 81 83 81 80 80 80 81 83 86 85 81 74 73 76 74 69 67 66 64 65 66 67 68 69 70 70 71 71 73 74
119 126 125 116 108 110 110 110 109 112 114 106 108 95 82 83 86 84 82 82 86 87 87 85 83 80 77 75 75 75 72 71 70 72 71 70 71 71 73 75 76 75 75 76
112 115 118 117 119 120 118 117 117 120 111 114 102 108 91 91 93 91 90 88 89 92 90 87 85 83 79 76 77 78 77 77 76 79 76 73 73 74 75 77 78 77 77 78
114 113 112 106 102 112 119 119 122 121 118 120 115 113 101 98 99 98 96 96 96 96 94 91 89 84 81 79 78 78 81 82 83 82 78 77 75 76 76 78 80 80 80 82
123 123 121 117 113 117 119 102 103 107 110 111 114 103 102 101 102 103 101 102 100 97 98 96 94 90 85 82 82 82 84 85 86 85 83 81 79 78 79 79 81 84 85 87
135 133 131 132 129 130 119 114 110 109 103 101 103 98 96 99 106 101 98 103 102 102 101 100 98 96 95 94 90 86 85 84 85 85 85 84 82 81 83 86 88 90 91 91
142 143 145 142 139 136 128 117 118 121 114 114 109 99 94 99 106 98 93 97 100 98 97 97 99 99 98 97 93 92 92 91 89 89 88 87 87 89 91 92 94 94 96 97
134 146 153 149 146 144 134 122 123 130 127 114 120 120 114 110 107 94 102 94 92 93 94 96 97 97 99 99 99 99 98 95 94 92 91 92 93 94 96 97 98 101 102 103
121 123 130 131 134 135 132 136 139 145 136 127 131 130 124 122 122 114 105 99 98 99 97 94 96 96 96 97 98 99 100 101 100 100 100 101 102 102 102 104 105 105 106 106
115 118 118 119 122 116 108 116 125 131 135 135 135 136 131 129 127 127 125 119 111 110 108 107 105 102 100 96 97 97 96 98 99 100 101 102 102 103 105 107 110 109 110 108
115 113 114 118 113 109 104 106 109 115 119 121 122 125 128 132 137 137 134 131 126 122 114 116 114 111 108 104 98 100 100 98 97 97 98 99 98 99 100 101 100 100 100 101
108 110 114 113 107 107 106 103 104 106 109 113 114 114 115 114 115 118 122 124 126 125 123 122 120 115 110 104 102 102 100 98 99 98 97 97 98 99 99 98 100 100 102 103
102 104 107 107 106 106 104 106 106 107 107 106 108 108 111 108 107 104 106 112 114 118 119 116 116 115 111 109 108 105 104 104 101 97 95 96 98 100 102 102 101 102 103 106
92 93 99 98 101 101 98 105 108 107 108 106 105 105 109 108 105 104 104 103 105 106 109 109 108 109 108 108 110 108 109 109 107 107 108 106 108 108 107 107 111 112 114 119

GFSCGP_250_spd_063.txt.gz
Wind_Speed
66 66 62 63 57 53 54 48 49 52 48 41 39 40 39 36 40 42 41 40 38 36 31 30 28 25 25 24 25 25 26 29 30 31 32 34 35 36 37 39 40 41 40 40
68 65 67 63 61 58 55 56 55 57 51 43 41 39 40 38 42 41 42 42 41 40 37 33 32 32 28 26 27 26 29 29 30 32 34 35 35 36 35 36 38 39 38 39
67 65 67 66 61 61 62 62 63 60 53 49 49 42 44 40 41 41 45 46 43 42 42 38 36 36 33 29 29 32 33 33 33 32 33 35 36 37 37 36 36 37 39 41
69 68 70 68 65 66 65 64 65 61 58 57 53 42 44 44 41 43 49 47 46 45 44 44 43 41 36 34 33 35 37 37 35 34 36 37 37 37 40 41 40 41 41 43
73 73 74 71 70 71 67 68 70 68 67 63 54 50 41 49 44 50 52 49 48 49 47 48 48 46 45 41 37 35 38 38 39 41 40 40 39 38 39 41 41 42 43 44
81 77 78 76 76 77 73 74 75 74 73 66 59 58 37 45 54 53 56 53 53 51 50 49 51 52 53 50 42 39 40 43 42 43 44 41 42 41 43 44 44 44 46 48
87 83 83 83 82 81 80 80 82 83 79 67 69 64 34 43 52 57 61 60 60 56 54 54 55 57 58 56 49 37 38 41 43 46 48 48 46 43 45 46 46 48 50 52
90 91 87 88 87 89 89 88 87 82 84 74 72 58 45 49 50 60 64 67 66 66 65 61 61 63 65 62 54 43 35 41 47 49 49 50 51 47 48 49 50 52 54 54
97 88 84 86 92 97 91 92 89 94 88 87 77 63 57 55 55 59 65 71 73 73 72 71 70 69 70 69 63 57 53 48 48 52 52 53 54 56 56 54 55 56 56 57
105 101 98 94 94 93 90 87 93 94 92 93 80 74 65 63 65 65 67 70 74 76 76 76 76 76 78 76 73 68 68 65 60 54 55 57 61 61 60 61 60 60 59 60
106 106 103 102 101 100 100 99 97 99 97 96 93 85 72 68 69 70 73 74 76 79 80 81 83 83 84 82 80 77 73 74 71 65 61 61 65 65 65 64 62 62 63 64
112 109 105 104 105 107 107 104 106 108 102 106 105 94 75 78 78 79 78 79 80 82 86 87 89 89 90 88 84 83 77 76 74 70 66 65 68 71 71 69 68 68 69 69
118 117 115 112 108 105 106 104 109 112 113 114 111 102 78 90 90 87 85 85 86 87 87 90 91 90 89 88 86 84 82 77 75 74 69 68 72 73 74 73 72 73 73 72
114 120 124 119 114 115 114 112 112 113 116 107 113 104 91 93 98 95 90 91 93 95 93 93 96 95 93 91 88 85 82 79 77 77 76 76 74 75 77 76 76 77 77 77
105 109 111 108 114 119 126 124 123 122 118 119 108 113 100 89 95 96 99 96 94 95 98 98 96 96 94 92 91 87 85 82 80 79 82 82 79 79 79 81 81 83 83 83
107 105 104 102 96 101 107 108 104 107 110 116 121 125 108 97 106 108 105 104 103 102 102 101 100 100 100 100 96 96 95 92 87 84 82 85 85 84 84 85 86 87 89 86
114 113 112 109 108 111 110 94 99 97 97 98 101 96 90 94 97 101 105 113 109 106 108 110 112 110 105 103 102 100 94 91 90 89 87 88 87 85 86 89 91 90 88 86
121 121 125 126 122 122 106 109 107 106 108 109 115 111 106 100 103 105 97 99 95 96 98 99 98 98 99 98 97 96 94 94 92 92 93 92 93 93 92 92 92 90 90 90
133 135 135 137 133 131 124 112 118 121 120 122 125 124 119 121 122 112 112 115 103 99 98 95 95 96 93 92 93 92 94 96 96 95 94 95 95 95 95 95 96 96 96 96
142 144 145 141 143 143 131 124 128 134 138 132 133 135 137 134 133 126 127 123 118 112 106 106 102 97 97 96 96 96 95 94 93 93 95 95 95 94 95 97 99 100 101 102
153 150 153 151 153 149 142 138 145 154 145 140 141 145 144 142 137 133 133 129 128 124 121 114 108 108 111 109 106 104 100 97 96 95 93 94 94 95 96 99 101 104 105 105
157 160 157 155 152 145 138 130 129 138 139 134 126 121 120 123 127 135 134 132 127 129 131 130 124 117 117 115 112 112 112 109 102 100 102 100 100 102 105 102 102 102 104 105
129 132 132 132 127 123 119 117 117 125 124 120 118 115 113 109 111 112 117 122 124 120 119 122 127 127 125 124 121 118 115 112 114 116 115 116 112 109 107 108 107 106 102 104
113 116 121 122 116 119 118 117 118 121 118 114 115 114 113 109 107 104 102 110 113 113 112 111 112 112 113 115 117 118 119 118 114 113 112 108 107 108 108 107 109 106 105 105
97 104 106 110 104 114 113 115 114 115 114 109 109 110 112 110 106 105 103 107 109 107 100 102 105 105 104 106 108 110 112 111 110 111 109 109 111 112 111 105 102 102 103 102
88 90 97 93 97 107 102 107 112 111 109 109 108 106 107 107 106 106 105 104 108 102 101 101 102 100 100 100 101 102 101 102 104 104 105 107 108 109 108 106 106 107 108 106

GFSCGP_250_spd_069.txt.gz
Wind_Speed
71 68 69 70 67 64 63 59 62 61 62 58 56 50 44 42 37 38 40 29 31 35 29 26 31 32 37 35 35 32 31 32 33 34 35 35 34 35 34 32 34 35 34 36
75 70 78 75 73 75 71 67 70 66 64 63 54 49 50 47 40 38 38 39 38 37 31 25 31 35 36 38 38 38 38 36 36 37 37 36 37 37 35 31 32 35 35 36
83 86 89 80 82 78 79 81 80 73 67 62 56 53 53 49 44 41 42 42 40 43 37 30 31 35 39 39 40 41 41 43 41 38 38 38 38 38 39 37 38 39 39 36
86 83 82 83 82 81 80 79 77 75 66 60 58 49 53 53 47 47 47 47 45 44 44 38 36 35 39 44 42 43 45 46 45 43 41 39 40 40 43 44 44 43 42 42
82 83 81 79 79 78 75 75 73 70 69 64 60 53 54 57 51 54 52 53 50 51 50 45 42 40 43 48 47 45 46 47 47 47 46 45 45 45 48 49 47 47 47 48
82 80 80 80 79 78 76 75 74 74 73 66 63 60 48 60 56 58 59 58 56 56 57 55 52 50 48 49 51 52 49 50 51 51 51 51 50 52 53 54 56 52 52 53
80 81 83 81 78 77 77 78 79 78 74 65 67 62 50 56 62 63 63 63 63 61 59 59 58 58 57 54 53 52 52 54 54 56 57 58 59 60 59 58 60 56 59 58
83 79 78 75 75 77 78 78 78 78 76 71 69 56 57 59 61 66 69 67 67 67 66 67 65 65 62 61 59 57 57 57 55 56 60 62 65 66 67 68 62 68 64 63
87 87 86 84 82 80 78 76 79 79 75 74 69 61 61 64 66 70 72 71 71 71 72 74 75 74 72 70 67 66 64 64 64 63 64 67 69 70 72 73 74 74 73 73
89 88 87 89 88 86 85 86 87 85 82 80 70 66 63 68 74 72 72 75 75 76 78 78 78 78 79 79 78 76 75 73 71 70 70 71 73 76 77 77 78 80 80 82
96 95 91 92 89 91 92 91 91 91 90 90 83 72 70 75 78 79 80 81 81 82 83 83 82 81 82 83 84 84 83 82 80 78 78 79 79 79 82 84 85 83 84 85
102 100 95 93 92 95 99 100 100 100 99 100 95 75 76 82 85 84 85 87 87 87 89 89 88 88 90 90 90 89 89 89 88 87 86 86 87 88 89 90 89 89 88 92
107 105 103 103 103 102 102 102 104 103 104 99 103 82 84 90 90 90 92 93 93 94 96 96 96 93 93 93 93 92 92 93 93 91 91 92 93 93 94 95 94 95 95 94
113 112 108 107 109 109 108 107 107 107 108 105 106 98 87 93 95 98 101 101 100 101 102 101 100 100 102 102 102 102 100 100 100 100 98 98 99 99 98 97 97 96 95 96
113 112 111 111 112 113 115 114 114 114 113 115 108 113 97 99 104 106 108 106 106 105 105 108 108 106 106 109 107 106 105 105 105 104 103 103 104 103 102 103 103 99 98 100
105 107 107 106 110 115 110 109 119 120 116 119 116 117 107 104 104 108 108 106 108 108 108 110 110 109 111 110 113 114 112 112 112 106 106 110 106 107 101 101 104 100 95 86
100 101 100 100 103 106 101 93 95 96 100 105 106 102 103 99 99 101 103 106 105 101 100 104 107 104 104 106 105 105 107 104 105 105 103 101 94 88 89 86 88 88 91 94
100 101 98 96 97 101 85 82 84 87 90 94 92 88 86 84 82 86 90 94 97 96 91 91 94 96 97 95 95 96 98 101 103 103 100 97 95 97 98 98 98 96 101 101
107 107 108 108 107 98 85 83 94 97 98 97 98 99 99 98 90 88 91 90 91 91 95 95 94 95 97 99 100 100 101 103 105 106 109 110 107 106 108 107 110 110 109 111
113 115 116 110 111 109 91 97 105 116 108 103 110 112 113 113 110 104 107 103 101 102 103 104 105 104 106 106 107 110 110 110 115 117 114 117 117 117 115 116 118 118 118 119
120 120 118 116 119 114 100 103 115 123 117 115 120 120 123 122 124 121 118 117 118 118 118 116 113 115 116 118 117 118 117 117 120 121 122 122 120 128 127 127 127 124 127 127
128 130 127 126 129 126 113 115 122 126 127 127 131 133 133 133 130 130 127 128 126 126 127 128 126 127 124 119 119 119 121 123 120 123 125 128 130 132 128 125 124 122 116 114
137 134 137 137 136 135 131 130 130 137 140 142 139 141 141 139 137 137 135 134 131 131 133 130 127 132 129 119 115 117 119 119 117 119 123 123 121 118 116 116 115 113 113 112
143 142 145 144 138 142 142 138 141 147 145 144 146 143 142 139 137 134 135 133 130 129 122 119 123 117 117 114 113 112 110 108 109 110 112 114 113 110 110 108 109 108 109 109
142 144 145 147 143 146 147 146 145 144 139 137 138 134 130 129 126 124 118 116 116 113 108 107 108 109 107 106 106 105 105 104 104 104 107 107 104 105 106 106 106 105 104 105
131 135 142 140 140 139 135 141 141 132 126 123 120 116 114 113 111 110 107 104 104 103 101 100 100 99 99 99 100 99 99 98 99 100 102 102 100 100 102 103 104 105 103 105

GFSCGP_250_spd_072.txt.gz
Wind_Speed
77 75 71 71 71 64 61 55 55 52 49 43 48 49 52 47 49 49 50 46 44 42 37 41 38 37 35 37 38 35 29 30 31 33 34 35 35 37 38 37 37 38 37 37
78 75 69 66 67 61 62 65 65 55 52 55 53 55 53 53 52 53 51 52 50 44 43 40 35 42 42 42 40 39 38 37 36 37 38 39 38 38 38 38 39 39 38 37
74 71 68 67 67 66 66 67 68 62 63 61 65 59 60 60 61 60 55 54 54 50 44 44 43 45 46 45 43 43 44 42 42 41 43 45 44 43 42 41 41 42 41 41
84 80 81 79 83 81 75 76 76 72 72 70 67 59 63 64 63 60 58 57 56 54 53 50 49 49 50 52 48 47 50 50 48 46 46 47 48 49 49 47 46 47 48 49
87 87 85 83 85 85 81 81 81 79 76 69 69 66 67 64 66 63 62 63 61 60 57 54 54 55 53 52 52 52 52 52 51 48 48 49 50 53 54 54 54 53 53 55
90 87 85 86 86 84 85 85 81 81 81 75 74 68 59 67 64 64 66 67 66 65 64 62 60 58 56 56 57 58 57 55 53 50 50 52 51 53 58 60 62 64 63 61
87 86 85 85 85 84 82 87 84 82 81 72 69 69 57 64 70 70 71 72 71 71 69 67 64 62 61 61 60 61 60 60 58 57 56 55 56 56 60 65 67 70 71 71
90 89 87 87 86 86 86 85 83 81 77 74 71 64 63 64 70 75 78 76 75 73 73 72 70 67 66 65 64 65 65 65 63 60 59 61 63 63 65 68 72 75 78 77
95 94 92 91 92 91 87 85 88 85 80 76 71 68 68 71 73 77 80 79 78 78 78 78 76 73 72 70 69 67 70 70 69 67 67 68 70 70 71 73 76 79 81 82
96 93 89 90 90 91 89 88 87 85 82 79 72 70 68 73 77 75 77 80 82 81 80 81 81 80 78 78 77 75 75 76 76 78 75 75 77 77 78 79 81 84 86 87
99 97 94 94 90 91 93 92 90 89 86 80 73 68 68 73 76 75 75 78 80 83 84 84 83 82 81 82 83 83 83 85 85 84 85 84 85 85 86 86 88 89 90 91
100 99 97 95 97 98 97 94 92 92 91 90 84 75 76 78 81 80 81 81 83 85 85 85 86 86 86 86 86 88 89 90 91 91 90 91 92 91 90 91 91 93 94 96
107 106 101 100 99 98 97 96 95 96 97 92 93 80 84 89 89 89 90 90 91 92 92 91 91 93 94 95 94 93 95 97 97 96 96 96 96 98 99 101 101 101 100 100
106 106 105 105 104 103 102 102 102 103 102 97 96 90 90 91 93 95 98 98 100 98 97 98 98 99 99 101 101 100 101 103 104 104 103 102 103 103 103 102 101 101 102 101
110 109 110 106 105 105 105 106 105 105 105 105 101 100 92 97 99 101 102 102 104 106 106 107 106 107 108 108 109 109 110 110 110 109 109 109 109 108 106 107 109 110 105 105
110 111 111 113 115 117 115 113 112 109 110 109 110 107 98 104 106 107 110 111 113 114 113 113 114 115 115 117 117 117 116 116 117 116 114 113 113 116 104 109 105 103 106 109
109 110 111 115 119 120 117 111 113 114 116 120 119 109 106 106 109 112 109 106 107 111 114 116 115 115 118 117 116 113 111 112 112 110 110 110 106 104 103 105 106 104 101 103
104 105 106 105 104 104 93 96 100 105 105 107 105 105 106 102 98 100 103 103 103 99 95 88 86 86 88 90 92 93 95 96 99 104 104 103 100 100 101 102 106 105 105 104
99 100 102 102 99 93 82 84 94 97 96 96 94 95 94 90 86 86 93 95 93 88 84 83 83 86 87 88 90 91 93 95 96 98 100 105 108 107 108 111 112 114 114 114
100 102 105 103 104 95 80 91 98 105 99 97 102 100 98 96 93 88 94 94 91 93 92 91 93 93 94 97 99 99 101 104 105 106 107 111 113 116 120 121 122 121 122 123
109 108 109 109 113 106 91 96 107 110 102 102 105 107 105 101 98 92 93 95 98 100 101 100 101 101 105 106 107 109 110 113 114 116 117 119 119 120 123 126 129 131 129 130
120 118 114 117 121 114 102 109 114 116 112 113 115 117 116 113 112 110 106 107 110 112 114 115 114 117 118 114 114 117 119 118 119 120 122 125 124 124 126 128 129 133 134 133
123 124 125 123 122 119 114 115 120 125 124 122 121 122 123 121 120 121 122 123 122 123 125 127 126 127 129 128 124 122 123 122 123 125 127 129 131 130 131 131 132 132 132 133
128 129 131 133 129 130 130 129 130 132 133 133 130 127 130 133 133 131 131 130 131 133 132 130 130 131 133 132 128 122 120 118 118 119 119 118 117 119 119 117 118 118 119 120
136 138 136 137 138 141 142 142 140 139 138 139 140 140 142 141 140 141 138 137 133 131 129 127 125 122 122 119 116 114 113 110 108 108 107 105 103 102 103 104 104 104 104 108
139 142 144 145 146 149 148 149 149 146 145 146 147 146 145 142 137 134 133 131 125 124 123 116 113 110 110 109 107 105 104 102 102 102 102 101 99 98 98 98 97 96 98 98

GFSCGP_250_spd_075.txt.gz
Wind_Speed
80 74 75 77 73 66 63 63 64 63 57 54 52 52 45 45 41 40 45 49 50 49 47 45 44 44 45 44 44 40 40 38 37 35 35 36 37 39 39 39 39 40 40 41
88 82 82 84 79 73 72 63 67 66 65 62 54 55 47 48 48 48 53 54 55 56 54 51 47 47 48 48 47 45 46 44 42 41 39 39 40 42 43 42 42 42 41 43
83 85 85 80 80 78 75 70 68 67 64 56 54 53 57 53 53 58 59 62 63 61 57 56 50 49 49 51 51 50 52 50 49 46 44 43 43 43 44 46 47 47 46 46
84 81 84 84 85 81 77 78 73 70 62 56 58 53 61 65 64 64 66 64 64 59 60 55 52 52 53 53 55 55 55 54 54 52 51 48 47 47 46 45 48 50 50 51
84 82 82 81 83 82 81 80 76 78 75 67 64 58 69 71 72 69 69 68 69 69 66 60 55 56 59 59 58 58 59 58 57 57 55 55 53 52 53 52 51 53 54 55
92 93 88 84 84 84 83 82 83 83 71 68 73 74 67 75 77 73 73 75 73 68 67 63 60 60 62 62 62 63 63 62 61 60 60 60 59 58 59 60 59 59 60 62
92 98 93 89 93 93 94 92 88 84 80 74 74 75 70 74 77 82 81 78 78 72 69 65 66 67 67 66 66 66 68 67 67 66 65 64 64 64 64 65 65 66 67 69
103 103 100 99 98 95 95 93 91 88 84 81 81 76 77 76 76 81 80 80 76 76 72 71 71 71 70 70 69 71 72 71 71 71 70 70 69 69 71 72 71 73 76 77
104 102 97 99 102 102 98 94 95 93 93 91 83 80 80 81 83 83 78 80 80 79 76 75 75 75 75 74 73 74 75 75 76 76 75 75 75 75 76 78 78 82 83 86
102 101 100 102 102 99 97 95 97 97 94 88 83 82 85 85 80 77 77 79 82 81 81 81 80 81 81 79 78 79 79 81 80 81 82 81 80 81 81 83 85 88 89 90
96 99 99 97 95 93 95 94 92 93 91 86 84 83 84 82 82 82 85 83 82 82 84 84 84 84 86 85 85 84 84 84 84 84 85 86 87 87 87 89 90 91 93 94
100 100 98 96 95 96 97 96 97 97 93 91 90 90 89 87 86 85 83 82 82 84 85 85 85 85 85 84 84 83 84 85 86 87 88 89 90 90 91 92 94 95 97 99
105 104 101 101 98 98 99 99 100 101 101 97 94 86 88 87 87 90 87 85 86 86 85 84 85 86 87 88 88 89 89 90 91 92 93 95 95 97 98 100 101 102 103 103
110 108 107 104 104 106 105 104 106 106 104 98 96 94 91 90 90 92 93 93 92 94 94 94 93 92 93 95 96 96 96 97 99 100 101 101 103 104 105 106 107 108 108 109
109 113 115 114 111 108 108 109 108 105 102 101 95 96 95 95 97 99 99 99 100 101 102 102 100 100 101 103 103 102 104 107 107 107 109 111 112 112 113 114 114 112 113 113
104 106 108 110 107 105 105 105 102 101 102 104 104 98 98 103 104 103 101 100 101 103 104 105 106 106 107 109 111 114 113 113 114 116 119 120 118 118 118 118 118 118 118 116
112 108 106 108 108 108 109 101 103 104 105 105 106 100 102 105 107 109 110 110 110 111 112 114 115 116 117 118 118 118 119 120 120 119 116 116 115 113 104 100 100 98 99 95
123 123 120 119 117 119 110 110 112 115 115 116 114 112 113 114 116 118 119 118 119 120 120 121 122 121 122 122 120 120 120 116 114 112 107 101 99 97 95 93 95 98 99 101
115 117 117 119 120 117 114 113 115 120 121 120 119 121 120 119 118 118 123 123 120 117 116 110 100 98 97 97 94 97 100 100 102 100 99 97 96 99 103 103 104 106 107 112
110 113 119 116 117 112 105 113 114 117 114 108 114 115 113 110 106 103 104 99 95 94 94 94 95 95 94 95 96 95 97 102 101 103 104 106 107 110 109 110 115 117 120 121
103 110 112 111 111 102 97 99 102 106 97 101 103 102 101 99 98 96 95 97 98 99 99 99 98 101 102 100 96 98 101 101 104 107 109 111 114 117 119 120 121 121 124 127
103 106 105 107 107 96 92 101 101 103 105 104 104 106 105 103 102 101 102 104 105 106 108 108 106 104 105 106 106 107 108 110 111 114 116 119 121 123 126 126 127 130 132 133
105 107 106 109 108 107 104 106 110 111 109 108 108 110 111 112 111 111 112 113 113 113 113 112 111 111 112 114 114 113 115 116 118 120 122 125 128 133 137 138 138 138 137 135
113 112 115 116 116 119 116 116 119 122 120 120 119 116 115 114 116 118 117 116 118 120 122 123 123 123 123 128 126 126 124 122 122 122 125 128 131 132 134 135 133 129 126 121
117 119 118 121 121 122 123 124 122 118 120 121 122 123 124 125 125 125 125 126 127 128 131 134 136 136 137 139 139 140 135 130 127 126 126 125 124 122 120 119 117 115 112 109
119 120 124 123 124 124 125 126 126 128 129 129 130 133 134 136 136 135 136 137 138 138 136 134 133 134 134 132 132 130 123 121 117 115 115 113 111 110 108 106 105 104 102 101

GFSCGP_250_spd_078.txt.gz
Wind_Speed
76 73 63 68 67 65 63 59 62 57 54 53 49 54 57 58 54 49 49 53 46 45 45 49 48 51 49 47 48 44 41 41 43 43 43 42 40 39 37 38 37 35 36 38
80 78 70 64 69 67 68 66 64 58 56 55 54 57 57 55 58 56 50 51 46 48 51 52 53 49 52 50 54 50 46 45 46 48 49 49 46 46 46 44 42 41 41 41
85 88 81 73 66 71 73 72 69 64 61 59 58 60 60 57 61 60 54 53 56 56 52 58 55 51 55 55 51 57 52 50 51 52 53 53 53 52 52 51 50 48 47 47
85 87 88 74 76 73 75 75 70 66 65 66 65 66 66 64 61 61 60 58 56 59 61 64 62 62 60 62 64 57 56 56 56 55 56 56 57 57 57 57 56 56 56 56
85 85 79 84 79 80 80 77 79 77 74 71 70 69 73 70 63 63 61 63 64 64 69 65 69 65 68 65 65 59 61 60 60 60 60 61 61 61 61 62 62 63 62 62
92 94 89 85 90 82 84 79 77 76 75 73 74 72 72 74 68 65 69 71 68 69 69 71 70 70 74 68 64 64 65 65 64 63 63 65 64 65 66 68 67 69 69 69
102 95 91 89 85 83 81 85 85 83 81 74 77 78 78 75 74 74 72 75 71 71 75 75 73 75 74 75 72 68 69 69 70 69 68 68 68 69 70 72 72 74 75 76
97 96 99 99 96 91 89 91 90 88 84 79 76 77 80 74 78 82 84 78 78 78 78 76 79 79 81 79 76 72 74 71 72 72 73 73 73 74 75 75 77 79 79 80
109 108 104 98 101 100 94 97 95 91 88 88 83 86 89 90 80 78 84 86 85 81 91 94 87 86 82 80 80 79 77 76 76 76 77 78 78 79 80 81 81 82 83 84
110 108 107 106 104 103 98 97 100 100 97 96 99 97 97 91 85 88 86 89 86 89 92 88 90 89 87 86 85 82 80 79 79 81 82 83 83 84 85 85 85 85 88 89
105 106 105 110 110 108 104 105 106 106 104 102 97 96 96 92 90 93 90 88 90 93 93 92 91 89 88 90 88 86 84 83 84 85 85 85 86 86 86 87 87 89 91 92
102 103 101 100 103 107 109 108 108 104 99 99 98 97 97 94 93 91 94 94 95 94 93 93 92 93 91 90 88 87 87 88 87 88 88 88 88 89 90 91 93 94 95 97
104 106 106 103 101 100 101 95 96 98 100 97 98 92 94 91 91 95 97 95 94 94 91 90 91 92 90 89 89 89 88 89 89 90 91 93 95 96 97 97 98 98 99 100
104 105 104 99 96 97 98 96 96 99 101 95 96 96 95 96 96 96 95 96 98 98 96 97 96 94 93 91 91 93 94 94 96 98 98 98 100 102 104 104 105 107 108 110
106 102 101 101 101 101 100 100 100 101 97 98 90 94 95 98 99 99 99 100 101 100 100 100 99 98 97 96 96 98 100 102 103 106 107 107 108 108 110 112 114 116 118 120
109 107 108 106 106 106 107 105 105 105 104 102 98 100 104 106 105 105 104 102 102 102 102 102 102 102 104 104 104 106 107 107 109 110 111 112 113 115 118 121 123 125 127 127
114 110 111 113 113 112 112 104 104 104 105 106 106 106 109 109 108 109 107 105 105 104 105 107 106 108 106 107 108 111 113 115 117 119 122 123 123 124 124 124 125 125 123 121
114 113 114 113 113 116 111 108 107 109 110 109 106 104 109 110 106 106 106 109 107 106 107 108 110 111 113 115 118 121 123 125 126 127 127 128 125 120 119 113 110 109 109 109
113 111 111 111 111 107 101 101 103 107 107 106 104 108 110 113 113 113 113 114 113 113 116 119 120 121 124 125 126 127 128 128 123 116 111 107 105 102 102 103 105 108 106 107
122 120 121 121 118 116 108 109 112 112 110 110 114 115 115 115 116 117 119 121 124 126 125 126 126 124 120 120 119 117 110 105 102 103 103 105 108 109 111 113 112 114 117 118
125 126 125 124 126 124 121 121 124 122 114 119 122 123 124 125 126 126 126 124 123 123 122 121 118 114 111 110 108 107 107 107 106 107 111 113 116 116 119 119 119 121 123 123
114 122 125 125 125 121 117 119 121 124 126 122 120 119 120 121 120 119 117 116 115 111 108 106 106 108 110 111 110 110 112 114 116 117 118 121 123 124 125 126 125 129 129 130
100 102 102 104 107 106 109 111 111 112 112 113 112 110 106 107 108 110 110 108 109 110 111 111 111 112 114 115 118 118 120 121 122 124 126 128 131 133 132 131 132 133 134 137
104 105 107 106 105 106 106 105 105 108 111 111 110 108 106 106 107 109 111 113 115 116 117 119 121 122 123 126 127 126 125 126 125 125 126 128 129 131 133 135 133 132 133 133
111 111 108 110 108 109 112 114 111 109 109 109 109 110 111 112 114 114 116 117 118 121 124 125 124 121 120 122 123 126 129 128 130 134 137 134 131 129 128 130 128 125 124 121
113 115 117 117 119 119 118 117 116 113 112 112 113 113 115 117 118 119 120 121 121 123 122 122 123 123 124 126 130 137 140 138 137 135 133 126 122 121 121 119 118 118 114 114